{"data":{"norad_id":66618,"intl_designator":"2025-271B","name":"STARLINK-35970","alt_names":[],"object_type":"PAYLOAD","status":"ACTIVE","operator":null,"country":"US","launch_date":"2025-11-23","launch_site_code":"AFWTR","launch_vehicle":null,"mission":null,"orbit_class":"UNKNOWN","rcs_meters":null,"size_class":null,"mass_kg":null,"dimensions":null,"purposes":["comms"],"wikipedia_slug":null,"has_3d_model":false,"image_url":null,"decayed_at":null,"tle_current":{"epoch":"2026-05-24T23:54:05.601024Z","epoch_age_seconds":75407,"freshness":"FRESH","line1":"1 66618U 25271B   26144.99589816  .00012518  00000+0  43389-3 0  9992","line2":"2 66618  53.1599 145.1987 0001528  68.0355 292.0808 15.30211984 29250","mean_motion":15.30211984,"eccentricity":0.0001528,"inclination_deg":53.1599,"raan_deg":145.1987,"arg_perigee_deg":68.0355,"mean_anomaly_deg":292.0808,"bstar":0.00043389,"rev_number":2925,"period_min":94.104608711521,"perigee_km":474.13210086024,"apogee_km":476.22647431772,"semimajor_km":6853.316287589,"source":"CELESTRAK","updated_at":"2026-05-25T13:38:21.294041Z"}}}